Terminal Aerodrome Forecast
Issued by NWS

Home | Current Version | Previous Version | Text Only | Print | Product List | Glossary On
Versions: 1 2 3 4 5 6 7 8 9 10 11 12 13 14
000
FTUS43 KAPX 060532
TAFPLN
TAF
KPLN 060532Z 0606/0706 00000KT 4SM BR SKC
      TEMPO 0608/0611 2SM BR
     FM061300 20009KT P6SM SCT250
     FM070000 24005KT P6SM OVC140
     FM070300 22006KT 4SM SHRA OVC030=

USA.gov is the U.S. government's official web portal to all federal, state and local government web resources and services.